User: anonymous   Login
Location: Rometta
(44.2000°N, 10.0500°E)
Time: 02:35:12
(UTC+00:00)
Language:

ISS - Orbit

View from above orbital plane
View from above orbital plane
View from above satellite
View from above satellite

Ground track
Ground track

The orbit data is extracted from the following two-line orbital elements,

1 25544U 98067A   21101.84751226  .00000833  00000-0  23363-4 0  9995
2 25544  51.6441 310.8488 0002845 215.1000 262.6163 15.48881363278317
Epoch (UTC): 11 April 2021 20:20:25
Eccentricity: 0.0002845
inclination: 51.6441°
perigee height: 418 km
apogee height: 422 km
right ascension of ascending node: 310.8488°
argument of perigee: 215.1000°
revolutions per day: 15.48881363
mean anomaly at epoch: 262.6163°
orbit number at epoch: 27831

The dashed part of the orbit path shows where the satellite is in the earth's shadow,  

DLR